Location: Bothwell
(42.3833°S, 147.0000°E)
Time: 20:42:13
(UTC+11:00)

AO-85 - Pass Details

Date: 02 October 2022
Orbit: 513 x 757 km, 64.8° (Epoch: 24 November)

Event Time Altitude Azimuth Distance (km) Brightness Sun altitude
Rises 03:45:41 0° 202° (SSW) 3,060 ? -31.1°
Reaches altitude 10° 03:49:30 10° 172° (S) 2,197 ? -30.6°
Maximum altitude 03:51:35 12° 147° (SSE) 2,061 ? -30.3°
Drops below altitude 10° 03:53:42 10° 123° (ESE) 2,245 ? -30.0°
Sets 03:57:41 0° 93° (E) 3,199 ? -29.4°
